Wind_Speed
59 55 54 59 62 59 56 54 53 62 77 71 61 50 52 49 43 47 46 42 33 28 22 19 16 16 16 17 17 13 13 17 17 17 17 21 21 14 14 11 14 12 12 14
61 55 59 63 67 65 62 57 52 58 75 70 66 55 48 50 44 49 47 44 41 33 27 24 18 16 18 20 20 19 16 18 19 20 24 17 18 18 14 10 16 14 16 15
68 66 66 65 66 68 65 60 61 62 72 64 62 56 53 49 45 46 49 48 46 40 30 28 24 20 18 22 22 21 21 19 21 23 26 23 18 18 17 16 15 19 20 21
73 75 78 79 70 71 67 67 67 69 74 66 58 46 51 53 48 46 52 49 48 45 35 30 31 25 22 21 23 22 23 21 24 25 31 26 19 18 15 20 21 21 23 23
80 80 83 84 79 85 68 77 70 74 74 75 60 41 47 53 51 49 56 50 46 45 40 34 31 32 26 24 25 23 24 24 26 27 32 26 17 18 21 23 25 27 27 25
70 75 81 81 81 87 79 83 76 73 74 76 63 53 43 50 56 54 62 50 48 47 43 39 35 35 31 29 28 28 27 26 29 28 29 25 17 19 21 21 28 29 29 29
63 61 61 65 68 77 81 88 82 77 74 70 70 61 48 51 56 64 59 50 52 49 45 43 40 37 35 34 33 32 32 30 32 31 28 26 20 18 18 17 21 27 31 30
54 49 48 50 54 64 71 75 75 72 72 68 70 57 56 57 58 67 56 55 52 52 51 45 41 39 38 38 36 35 36 35 35 34 32 27 21 23 25 26 29 26 31 37
51 47 39 42 45 57 63 67 72 73 71 68 66 57 59 63 58 58 59 58 57 56 54 48 41 39 40 40 38 39 39 38 39 38 39 24 23 27 24 26 38 35 30 32
52 44 38 38 42 50 58 63 68 73 67 64 62 55 57 63 57 59 64 63 62 59 56 52 44 40 40 41 42 40 40 40 43 39 26 25 23 22 27 27 38 40 39 35
53 42 38 35 37 49 54 59 58 62 63 59 58 56 62 64 60 60 64 65 64 60 58 54 46 42 41 45 43 42 40 41 37 33 29 28 31 32 41 38 31 36 46 42
50 43 38 33 38 45 51 54 56 60 56 57 55 52 61 64 63 61 62 65 66 63 59 53 47 45 47 45 44 44 39 44 42 34 32 35 36 46 51 49 40 35 37 44
48 37 36 34 36 43 48 52 55 55 55 51 51 52 60 60 61 59 60 63 67 65 60 52 48 48 50 49 46 41 44 46 30 25 27 35 50 46 58 51 41 36 37 39
48 38 31 35 37 41 45 47 47 47 45 49 46 55 58 55 56 55 56 60 64 63 61 56 51 50 47 40 38 43 47 35 29 25 41 47 48 55 54 47 42 33 36 36
40 35 30 35 40 36 37 39 40 42 40 46 45 45 50 54 53 51 52 54 57 58 59 57 53 39 28 33 27 35 38 41 49 47 55 52 52 55 42 37 40 34 33 33
35 31 31 37 40 37 36 24 34 36 34 44 38 40 46 50 50 49 50 51 47 48 50 53 48 40 16 25 32 35 36 43 52 58 36 37 39 42 41 41 40 34 31 30
31 27 30 35 32 33 25 18 30 30 34 33 31 39 40 44 48 46 45 47 44 46 44 44 41 37 24 30 42 46 50 48 34 36 42 35 33 40 44 40 33 34 33 30
28 25 30 31 33 25 16 7 13 19 32 36 35 34 37 36 36 36 40 40 37 31 31 39 32 32 27 26 40 48 52 52 51 42 45 39 40 42 46 30 29 32 34 32
26 23 28 32 35 33 34 34 14 32 33 34 41 39 37 37 38 36 38 35 32 32 34 35 32 32 33 26 36 63 52 61 54 55 48 49 45 47 37 29 32 27 31 31
25 26 29 34 39 42 49 43 40 35 37 40 42 41 36 38 37 32 33 40 50 40 36 39 41 40 32 36 48 65 47 49 45 46 46 48 44 43 33 37 44 34 25 30
24 29 35 39 40 33 41 49 45 41 43 44 46 46 45 47 42 41 43 45 48 49 46 43 44 53 54 45 43 40 44 52 55 57 50 53 49 38 38 27 33 27 22 26
25 27 28 36 38 38 41 42 43 38 44 49 45 52 50 52 48 50 51 51 51 51 52 45 38 47 39 38 56 58 61 69 70 65 63 62 55 52 52 38 30 26 25 25
23 26 36 39 43 40 33 27 33 37 40 48 55 53 53 53 48 53 58 55 60 60 55 44 48 57 55 50 50 59 61 66 71 71 65 56 52 53 57 53 45 27 28 32
26 27 33 36 33 36 33 25 30 37 43 43 47 50 48 51 37 53 52 49 55 63 64 61 63 54 51 63 56 58 66 64 62 61 60 58 58 56 55 58 49 39 39 38
28 27 23 22 27 32 30 30 33 31 37 38 30 33 21 23 31 40 44 50 57 70 73 67 68 62 60 60 58 62 62 57 53 58 66 66 65 60 58 56 54 43 43 38
27 25 23 23 23 26 30 29 32 36 36 29 36 34 25 25 28 35 38 49 58 67 73 75 70 66 66 63 54 58 57 58 65 68 70 75 71 70 68 60 58 56 45 36
Wind_Direction
280 278 277 271 270 267 268 267 265 260 263 264 261 259 266 267 270 274 280 285 288 293 295 289 277 274 292 304 313 317 349 353 358 2 342 327 323 307 272 256 249 257 263 256
282 279 272 266 265 265 265 265 265 259 257 258 259 257 253 261 262 268 272 278 282 286 290 289 274 272 278 281 292 304 322 334 338 348 347 330 320 301 273 252 235 246 254 248
286 282 276 271 267 264 262 263 261 259 257 260 257 252 249 249 252 258 265 271 275 280 285 286 282 269 269 277 282 291 301 318 326 333 339 331 323 308 281 256 233 234 249 259
282 279 275 275 271 264 259 257 254 255 258 259 255 253 252 246 244 247 258 262 268 277 279 279 280 274 268 272 277 282 291 309 315 325 330 328 328 325 289 253 240 229 241 244
280 276 272 271 269 262 257 255 250 251 254 255 256 249 250 247 241 241 250 252 258 270 272 272 273 274 272 270 272 278 289 301 311 322 322 321 325 321 297 265 245 232 234 234
282 274 271 269 262 259 256 257 255 252 252 253 254 247 250 249 241 237 244 246 253 262 267 268 268 268 269 272 274 280 287 297 305 313 317 314 290 288 289 260 244 233 224 232
292 282 272 265 258 254 253 252 252 250 252 252 251 249 245 248 242 238 241 245 248 256 261 263 263 267 269 270 274 279 285 294 299 303 304 317 283 298 298 255 236 233 229 234
300 288 271 258 249 245 245 244 243 244 246 248 248 246 246 244 241 243 241 241 248 251 256 256 260 266 268 269 274 282 288 296 295 292 304 306 283 299 289 251 229 237 229 229
308 295 280 259 242 241 243 242 241 239 237 237 240 240 244 243 245 243 241 242 245 249 253 258 259 263 267 269 274 278 286 293 290 303 299 277 278 303 293 277 237 230 235 233
314 301 280 259 244 237 238 239 242 245 244 241 235 235 240 243 242 238 236 239 242 246 250 256 261 261 262 267 271 278 289 294 300 302 286 266 274 329 334 309 246 236 247 244
317 306 283 263 247 234 234 238 243 248 243 240 235 232 236 238 236 235 233 236 240 243 248 254 259 259 260 264 274 283 291 290 299 294 280 259 258 299 322 319 305 248 246 247
315 306 281 262 246 235 234 236 236 237 238 239 234 230 235 236 234 233 234 235 240 243 245 249 255 260 262 270 277 282 287 291 293 279 279 260 263 294 310 313 310 286 246 245
313 299 279 262 249 236 232 232 234 234 236 233 233 232 229 231 233 235 238 237 237 243 248 253 255 261 267 274 279 279 286 290 273 280 275 287 293 289 309 309 306 287 268 248
309 296 269 259 248 237 232 228 229 229 233 236 225 226 231 224 228 233 238 240 241 244 248 252 256 260 267 275 286 288 283 271 236 269 297 296 293 294 303 301 295 285 273 260
302 288 262 258 244 231 231 224 225 229 222 229 226 228 231 227 225 228 235 238 240 243 244 247 251 263 279 287 296 284 278 267 250 272 293 293 293 298 296 294 297 285 275 262
296 283 253 240 240 227 220 233 231 221 223 231 223 220 226 229 226 228 232 239 238 240 238 246 249 255 255 322 319 322 313 259 252 263 289 287 296 299 295 295 292 282 270 259
291 268 248 235 237 225 182 147 252 241 219 219 221 217 218 223 222 223 229 236 235 240 242 245 249 250 264 299 303 306 301 297 278 263 280 291 297 305 303 297 291 285 265 254
279 260 240 231 231 207 156 206 255 265 237 216 209 209 213 212 213 210 222 228 228 233 244 247 241 229 222 247 280 290 292 294 286 272 283 280 288 305 316 288 291 300 270 252
272 259 223 220 218 181 155 182 199 237 231 208 205 204 201 198 196 198 208 215 225 194 216 216 220 196 179 172 248 265 269 283 269 267 278 279 280 308 304 283 295 299 274 264
261 240 223 219 206 195 178 200 213 220 215 205 201 196 190 194 190 193 205 212 175 201 188 228 209 188 180 191 195 233 254 267 256 253 275 275 281 304 296 278 291 293 270 264
242 239 216 216 207 201 209 206 221 223 208 202 195 187 192 190 184 211 212 208 203 197 196 195 192 192 191 210 224 228 230 239 245 261 262 275 277 280 304 309 299 286 276 271
240 234 225 215 215 213 218 217 222 226 210 202 202 198 197 191 200 203 202 205 205 199 204 191 197 195 196 206 218 217 224 237 246 247 258 271 270 278 279 286 316 291 278 278
229 229 224 215 221 226 224 233 227 224 218 213 211 206 201 194 206 206 201 203 200 198 203 202 203 205 206 209 220 230 232 234 241 253 261 267 273 276 271 270 276 291 293 280
225 230 231 230 233 236 236 240 224 219 216 218 219 213 220 212 219 208 209 213 211 212 207 218 206 202 213 215 224 227 230 233 240 249 253 265 269 271 275 276 279 285 297 299
217 225 225 227 240 246 252 246 224 214 217 216 216 222 193 211 218 217 215 213 214 212 213 218 209 214 214 216 227 230 230 233 244 248 250 258 264 267 270 276 280 281 294 296
211 222 227 233 237 237 236 234 227 228 208 195 182 185 189 202 214 221 231 222 217 214 218 220 219 218 221 234 244 238 244 249 249 251 256 259 268 269 270 276 280 275 285 286
Height
10863 10869 10874 10868 10865 10871 10875 10882 10889 10889 10870 10884 10900 10912 10913 10920 10924 10922 10924 10927 10930 10931 10933 10933 10933 10931 10930 10928 10927 10927 10926 10924 10924 10922 10922 10920 10916 10916 10915 10915 10917 10918 10920 10920
10849 10856 10851 10849 10849 10854 10860 10867 10874 10870 10855 10864 10878 10898 10905 10907 10915 10913 10915 10918 10921 10925 10926 10926 10927 10926 10925 10924 10923 10922 10921 10920 10920 10919 10918 10916 10912 10909 10909 10910 10912 10914 10915 10917
10835 10837 10831 10832 10835 10839 10844 10852 10852 10851 10836 10850 10863 10882 10890 10898 10905 10906 10906 10910 10912 10916 10920 10919 10919 10920 10921 10919 10918 10918 10917 10916 10916 10914 10914 10912 10909 10905 10903 10903 10905 10908 10910 10912
10821 10815 10809 10809 10820 10814 10824 10826 10829 10828 10823 10837 10849 10872 10880 10885 10894 10898 10895 10901 10904 10908 10912 10914 10912 10913 10915 10915 10913 10913 10912 10912 10911 10910 10909 10909 10907 10903 10899 10898 10899 10901 10903 10906
10799 10793 10784 10785 10795 10781 10812 10795 10807 10809 10814 10816 10838 10859 10865 10873 10881 10886 10882 10892 10897 10900 10904 10906 10907 10906 10908 10909 10908 10908 10907 10908 10908 10906 10905 10904 10901 10899 10898 10896 10893 10895 10899 10900
10772 10765 10760 10760 10764 10759 10779 10772 10789 10793 10798 10800 10829 10840 10853 10856 10865 10872 10869 10885 10889 10892 10895 10897 10899 10899 10901 10901 10902 10902 10901 10903 10902 10900 10900 10900 10898 10895 10891 10888 10887 10888 10891 10894
10744 10736 10731 10729 10734 10737 10749 10753 10764 10775 10781 10794 10806 10821 10842 10841 10848 10854 10864 10875 10878 10883 10886 10888 10890 10891 10892 10894 10895 10896 10895 10897 10896 10894 10894 10893 10891 10889 10886 10883 10883 10882 10884 10887
10722 10712 10708 10707 10711 10715 10723 10731 10739 10754 10765 10781 10784 10810 10822 10827 10834 10837 10857 10861 10867 10872 10874 10877 10881 10884 10885 10887 10888 10888 10888 10890 10888 10886 10886 10887 10884 10881 10879 10877 10874 10874 10874 10877
10703 10694 10692 10690 10693 10698 10708 10715 10722 10731 10744 10758 10773 10794 10804 10810 10821 10830 10844 10850 10854 10858 10862 10867 10873 10876 10877 10878 10880 10880 10880 10881 10878 10878 10877 10877 10875 10872 10869 10868 10866 10865 10868 10869
10691 10681 10678 10677 10681 10685 10692 10700 10709 10715 10732 10748 10762 10782 10792 10795 10808 10817 10826 10835 10839 10846 10851 10856 10863 10866 10867 10868 10870 10872 10872 10871 10870 10868 10865 10864 10864 10860 10860 10860 10859 10858 10858 10862
10681 10673 10668 10669 10672 10673 10680 10688 10699 10705 10719 10735 10753 10768 10774 10776 10789 10798 10810 10821 10826 10833 10840 10846 10852 10855 10858 10858 10862 10863 10862 10861 10860 10859 10858 10854 10852 10850 10850 10850 10851 10848 10846 10849
10673 10664 10659 10660 10661 10663 10669 10676 10683 10688 10704 10719 10736 10757 10756 10762 10771 10784 10797 10808 10816 10822 10828 10835 10843 10845 10847 10851 10854 10853 10854 10852 10851 10849 10849 10845 10845 10844 10841 10839 10838 10837 10836 10837
10662 10657 10650 10650 10651 10655 10658 10661 10668 10677 10689 10706 10723 10736 10735 10748 10761 10775 10783 10791 10798 10808 10819 10827 10833 10837 10838 10840 10843 10846 10846 10844 10843 10843 10842 10842 10839 10836 10834 10830 10829 10824 10824 10825
10648 10645 10643 10641 10641 10646 10649 10654 10658 10669 10680 10691 10706 10708 10724 10737 10749 10765 10773 10781 10788 10801 10810 10816 10823 10823 10823 10830 10837 10840 10838 10836 10834 10832 10834 10831 10828 10827 10825 10821 10817 10814 10813 10814
10641 10637 10634 10632 10631 10638 10645 10649 10654 10661 10671 10676 10689 10704 10712 10725 10738 10750 10759 10767 10778 10789 10798 10802 10807 10811 10815 10824 10827 10829 10829 10829 10827 10820 10825 10823 10821 10818 10816 10813 10809 10807 10804 10805
10633 10628 10625 10621 10626 10633 10639 10649 10652 10657 10663 10673 10680 10693 10700 10713 10728 10739 10748 10759 10769 10776 10780 10789 10796 10799 10802 10810 10816 10818 10818 10817 10816 10819 10818 10816 10811 10808 10806 10804 10801 10799 10796 10796
10621 10618 10617 10616 10624 10630 10641 10645 10657 10657 10657 10664 10671 10675 10687 10703 10715 10727 10738 10748 10756 10762 10772 10777 10779 10784 10791 10795 10804 10807 10810 10810 10807 10805 10806 10804 10800 10798 10797 10795 10794 10790 10789 10787
10610 10609 10610 10614 10621 10632 10638 10648 10648 10653 10654 10656 10663 10671 10679 10690 10705 10718 10726 10735 10744 10752 10757 10765 10770 10772 10784 10796 10803 10797 10796 10797 10801 10798 10795 10793 10792 10789 10785 10785 10786 10784 10781 10782
10600 10601 10605 10611 10617 10626 10630 10643 10646 10645 10648 10650 10656 10664 10671 10679 10689 10701 10710 10723 10735 10742 10745 10752 10753 10762 10769 10793 10803 10796 10790 10791 10793 10789 10783 10782 10783 10779 10777 10778 10776 10774 10773 10775
10593 10596 10602 10607 10613 10619 10622 10628 10631 10633 10639 10643 10647 10654 10664 10674 10685 10693 10701 10711 10720 10727 10729 10735 10739 10749 10764 10780 10784 10767 10782 10783 10777 10772 10770 10774 10776 10775 10769 10768 10767 10765 10764 10767
10587 10589 10596 10601 10606 10612 10617 10620 10624 10627 10632 10636 10642 10647 10657 10665 10672 10684 10692 10699 10707 10715 10721 10729 10738 10742 10748 10758 10761 10763 10764 10767 10759 10754 10757 10762 10768 10769 10765 10762 10759 10756 10755 10757
10581 10584 10590 10598 10602 10605 10609 10614 10617 10623 10629 10636 10640 10644 10648 10653 10662 10670 10680 10690 10700 10707 10708 10714 10722 10721 10725 10734 10744 10744 10746 10747 10743 10745 10747 10747 10756 10757 10759 10757 10753 10750 10750 10750
10576 10579 10584 10589 10593 10596 10603 10610 10615 10620 10626 10632 10636 10639 10644 10651 10655 10663 10671 10678 10689 10695 10700 10704 10707 10712 10715 10720 10727 10731 10732 10731 10731 10733 10734 10735 10744 10746 10747 10746 10748 10747 10746 10744
10571 10573 10579 10583 10588 10592 10598 10603 10607 10612 10617 10624 10629 10635 10642 10648 10656 10659 10664 10672 10679 10683 10687 10693 10697 10702 10706 10710 10711 10709 10709 10714 10717 10718 10720 10725 10733 10735 10736 10734 10734 10735 10735 10734
10566 10571 10576 10581 10584 10587 10591 10597 10604 10606 10612 10620 10625 10632 10640 10645 10648 10652 10657 10662 10667 10670 10675 10678 10686 10690 10693 10694 10692 10695 10699 10702 10704 10706 10711 10718 10721 10722 10721 10723 10724 10724 10725 10723
10563 10568 10573 10577 10580 10583 10586 10589 10594 10599 10606 10613 10620 10627 10631 10634 10636 10640 10644 10648 10652 10659 10663 10666 10672 10676 10679 10678 10679 10683 10684 10689 10693 10697 10700 10704 10704 10704 10705 10710 10711 10711 10712 10714